Terminal Aerodrome Forecast
Issued by NWS

Home | Current Version | Previous Version | Text Only | Print | Product List | Glossary On
Versions: 1 2 3 4 5 6 7 8 9 10 11 12 13 14 15 16 17 18 19 20 21 22 23 24
224
FTUS43 KLSX 281058 AAC
TAFUIN
TAF AMD
KUIN 281058Z 2811/2906 32006KT 2SM BR SCT002 BKN250
      TEMPO 2811/2813 1/4SM FG VV002
     FM281400 31008KT P6SM BKN035
     FM281800 31011KT P6SM SCT050=

USA.gov is the U.S. government's official web portal to all federal, state and local government web resources and services.